Location: Albany
(35.0000°S, 118.0000°E)
Time: 17:16:57
(UTC-04:00)

SJ-6B - Visible Passes

Search period start: 02 September 2014 00:00
Search period end: 12 September 2014 00:00
Orbit: 521 x 597 km, 97.8° (Epoch: 02 September)

Date Brightness Start Highest point End Pass type
(mag) Time Alt. Az. Time Alt. Az. Time Alt. Az.
02 Sep 5.4 07:09:02 10° SSW 07:12:03 22° WSW 07:15:02 10° WNW visible
02 Sep 2.9 17:50:42 10° N 17:54:48 62° W 17:58:52 10° SSW visible
03 Sep 5.3 07:07:31 10° SSW 07:10:35 23° WSW 07:13:37 10° WNW visible
03 Sep 2.9 17:49:13 10° N 17:53:19 65° W 17:57:24 10° SSW visible
04 Sep 5.2 07:05:59 10° SSW 07:09:06 24° WSW 07:12:12 10° NW visible
04 Sep 2.9 17:47:45 10° N 17:51:51 69° WNW 17:55:55 10° SSW visible
05 Sep 5.2 07:04:27 10° SSW 07:07:38 25° WSW 07:10:47 10° NW visible
05 Sep 2.9 17:46:16 10° N 17:50:22 72° WNW 17:54:26 10° SSW visible
06 Sep 5.1 07:02:55 10° SSW 07:06:09 26° WSW 07:09:21 10° NW visible
06 Sep 2.9 17:44:47 10° N 17:48:53 75° WNW 17:52:57 10° SSW visible
07 Sep 5.0 07:01:23 10° SSW 07:04:40 27° WSW 07:07:55 10° NW visible
07 Sep 2.9 17:43:19 10° N 17:47:24 79° WNW 17:51:27 10° SSW visible
08 Sep 4.9 06:59:50 10° SSW 07:03:10 29° WSW 07:06:29 10° NW visible
08 Sep 2.9 17:41:50 10° N 17:45:55 83° WNW 17:49:57 10° SSW visible
09 Sep 4.9 06:58:18 10° S 07:01:41 30° WSW 07:05:02 10° NW visible
09 Sep 2.9 17:40:21 10° NNE 17:44:25 86° WNW 17:48:27 10° SSW visible
10 Sep 4.8 06:56:45 10° S 07:00:11 31° WSW 07:03:35 10° NW visible
10 Sep 2.9 17:38:52 10° NNE 17:42:55 90° ESE 17:46:56 10° SSW visible
11 Sep 4.7 06:55:13 10° S 06:58:41 33° WSW 07:02:08 10° NW visible
11 Sep 2.9 17:37:22 10° NNE 17:41:25 86° ESE 17:45:25 10° S visible
